[[{"header":{"parameterUnit":"m.s-1","parameterCategory":1,"la1":30.2991,"la2":30.254,"lo1":-89.0895,"lo2":-89.0444,"dy":0.0017,"dx":0.0017,"nx":28,"ny":28,"refTime":"2025-09-01T21:00:00:Z","depth":0,"parameterNumber":2,"parameterNumberName":"U-component_of_WINDS"},"data":[0,0,0,0,0,0,0,0,0,0,0,0,0,0,0,0,0,0,0,0,0,0,0,0,0,0,0,0,0,0,0,0,0,0,0,0,0,0,0,0,0,0,0,0,0,0,0,0,0,0,0,0,0,0,0,0,0,0,-5.2449,-5.2449,0,-5.2497,-5.2497,-5.2498,-5.2366,-5.2362,-5.2357,-5.2354,-5.24,-5.2405,-5.241,0,0,0,0,0,0,0,0,0,0,0,0,0,-5.2239,-5.2243,-5.2448,-5.2449,-5.245,-5.2496,-5.2497,-5.2498,-5.2366,-5.2361,-5.2356,-5.2352,-5.2399,-5.2405,-5.2411,0,0,0,0,0,0,0,0,0,0,0,0,0,-5.2313,-5.2245,-5.2448,-5.239,-5.2385,-5.2496,-5.2497,-5.2498,-5.2367,-5.2361,-5.2355,-5.2349,-5.2397,-5.2404,-5.2411,-5.2581,0,0,-5.2435,-5.2438,0,0,0,0,0,0,0,0,-5.2309,-5.2321,-5.2398,-5.2394,-5.2389,-5.2419,-5.244,-5.2526,-5.2369,-5.2374,-5.2353,-5.2346,-5.2411,-5.2417,-5.244,-5.2583,-5.2585,-5.2435,-5.244,-5.2443,-5.2445,0,0,0,0,0,0,0,-5.2304,-5.2318,-5.2467,-5.2399,-5.2394,-5.236,-5.2364,-5.2456,-5.2426,-5.2373,-5.2364,-5.2371,-5.2408,-5.2433,-5.244,-5.2586,-5.2435,-5.2442,-5.2447,-5.2449,-5.2867,-5.2873,0,0,0,0,0,0,-5.2307,-5.2314,-5.2466,-5.2469,-5.2333,-5.2369,-5.2373,-5.2415,-5.2425,-5.2421,-5.2376,-5.2365,-5.2423,-5.2431,-5.2441,-5.2637,-5.2443,-5.245,-5.2455,-5.286,-5.2868,-5.2875,0,0,0,0,0,0,-5.2303,-5.2321,-5.2464,-5.2389,-5.2405,-5.2379,-5.2428,-5.242,-5.2444,-5.2428,-5.2421,-5.2408,-5.2418,-5.243,-5.2546,-5.2637,-5.2454,-5.2461,-5.2853,-5.2863,-5.2872,-5.3032,0,0,0,0,0,0,-5.2297,-5.2321,-5.2386,-5.2392,-5.2409,-5.257,-5.2433,-5.2425,-5.2458,-5.2444,-5.2455,-5.2451,-5.2414,-5.2536,-5.2554,-5.2644,-5.2466,-5.2844,-5.2857,-5.2869,-5.3019,-5.3046,-5.307,0,0,0,0,0,-5.229,-5.2429,-5.239,-5.2409,-5.249,-5.2576,-5.2586,-5.2541,-5.2466,-5.253,-5.2519,-5.2451,-5.2625,-5.2549,-5.2568,-5.2662,-5.2838,-5.2854,-5.2868,-5.3007,-5.3041,-5.3069,0,0,0,0,0,0,-5.2434,-5.2429,-5.2385,-5.2531,-5.2555,-5.2553,-5.2633,-5.2579,-5.2624,-5.2608,-5.255,-5.2554,-5.268,-5.2683,-5.2599,-5.2824,-5.2718,-5.2738,-5.2818,-5.285,-5.2875,-5.287,-5.2473,0,0,0,0,0,-5.2484,-5.2555,-5.2546,-5.2675,-5.2689,-5.266,-5.2695,-5.2659,-5.2681,-5.269,-5.2687,-5.2711,-5.277,-5.281,-5.2865,-5.3019,-5.3018,-5.3093,-5.3119,-5.314,-5.3156,-5.3235,-5.3267,-5.2924,-5.2924,-5.2923,0,0,-5.2585,-5.2591,-5.2639,-5.2704,-5.2718,-5.2791,-5.2669,-5.2752,-5.2805,-5.2702,-5.2811,-5.2811,-5.2832,-5.2968,-5.3028,-5.2974,-5.3251,-5.3159,-5.3176,-5.318,-5.3253,-5.3286,-5.3315,-5.2934,-5.2932,-5.293,0,0,-5.2806,-5.2819,-5.2926,-5.2943,-5.2967,-5.2946,-5.2972,-5.2979,-5.2974,-5.3083,-5.3007,-5.3069,-5.3173,-5.3191,-5.3214,-5.3441,-5.3379,-5.3461,-5.3593,-5.3671,-5.3698,-5.3721,-5.3799,-5.3828,-5.3478,-5.3478,-5.3478,0,-5.2928,-5.3036,-5.2988,-5.3076,-5.3105,-5.3017,-5.3124,-5.3142,-5.3182,-5.3204,-5.3144,-5.3271,-5.328,-5.3417,-5.3472,-5.3495,-5.3521,-5.3457,-5.3698,-5.3721,-5.3742,-5.3816,-5.3845,-5.3487,-5.3486,-5.3485,-5.3485,0,-5.3184,-5.326,-5.3344,-5.3384,-5.3424,-5.3521,-5.3486,-5.3531,-5.3492,-5.3477,-5.3587,-5.3595,-5.3647,-5.3678,-5.364,-5.3809,-5.3774,-5.3708,-5.3599,-5.3785,-5.3853,-5.3881,-5.3501,-5.3498,-5.3495,-5.3493,0,0,-5.3496,-5.3508,-5.3539,-5.3555,-5.3575,-5.3632,-5.3724,-5.3776,-5.3814,-5.3845,-5.3919,-5.401,-5.3947,-5.3973,-5.3937,-5.4005,-5.418,-5.3929,-5.3928,-5.3972,-5.4363,-5.4411,-5.4444,-5.4141,-5.4146,-5.415,-5.436,0,-5.3711,-5.387,-5.3828,-5.3985,-5.4053,-5.397,-5.405,-5.407,-5.4059,-5.4113,-5.41,-5.4164,-5.4079,-5.4093,-5.4158,-5.4146,-5.4258,-5.413,-5.4206,-5.4209,-5.42,-5.448,-5.4531,-5.4729,-5.4386,-5.4391,-5.4394,0,-5.3983,-5.4024,-5.4188,-5.4193,-5.422,-5.4293,-5.4336,-5.4391,-5.441,-5.4397,-5.4426,-5.4376,-5.4464,-5.4358,-5.4478,-5.4393,-5.4422,-5.4421,-5.4427,-5.4429,-5.4311,-5.4487,-5.4791,-5.4819,-5.4436,-5.4433,-5.443,0,-5.4189,-5.4286,-5.4395,-5.4412,-5.4422,-5.4475,-5.4482,-5.4495,-5.4529,-5.4566,-5.4586,-5.4635,-5.466,-5.4698,-5.466,-5.4587,-5.4785,-5.4677,-5.4774,-5.4775,-5.4817,-5.4814,-5.5126,-5.4842,-5.4842,-5.4841,-5.4841,0,-5.4432,-5.4534,-5.4487,-5.4555,-5.4666,-5.4618,-5.4729,-5.4726,-5.4739,-5.4803,-5.4735,-5.4796,-5.4745,-5.4801,-5.4773,-5.4875,-5.4888,-5.4878,-5.4868,-5.4882,-5.4883,-5.4897,-5.4881,-5.4849,-5.4847,-5.4846,-5.4844,0,-5.468,-5.4653,-5.4766,-5.4767,-5.4769,-5.4852,-5.4851,-5.4912,-5.4896,-5.4977,-5.4994,-5.4968,-5.5031,-5.4998,-5.5063,-5.5044,-5.5175,-5.5149,-5.5168,-5.516,-5.5257,-5.5247,-5.5587,-5.5628,-5.5321,-5.5324,-5.5327,0,-5.4834,-5.4911,-5.492,-5.4958,-5.4969,-5.5032,-5.5065,-5.502,-5.5057,-5.5085,-5.5142,-5.5199,-5.5241,-5.5345,-5.5331,-5.5379,-5.5352,-5.5468,-5.5358,-5.5368,-5.5349,-5.5343,-5.5349,-5.5488,-5.5492,-5.5495,-5.5497,0,-5.511,-5.5093,-5.5144,-5.5191,-5.5232,-5.5267,-5.5295,-5.533,-5.5285,-5.533,-5.5393,-5.5427,-5.5492,-5.5548,-5.559,-5.5595,-5.5538,-5.5532,-5.5556,-5.5569,-5.5575,-5.5569,-5.5224,-5.5524,-5.5521,-5.5519,-5.5518,-5.5517,-5.5314,-5.5377,-5.5392,-5.5451,-5.5467,-5.5495,-5.5552,-5.5543,-5.5595,-5.5645,-5.5615,-5.5689,-5.5704,-5.5755,-5.5767,-5.5822,-5.5776,-5.5812,-5.5821,-5.5829,-5.5841,-5.557,-5.583,-5.583,-5.5829,-5.5828,-5.5828,0,-5.5582,-5.5588,-5.5643,-5.5684,-5.573,-5.5675,-5.5703,-5.5744,-5.5809,-5.5829,-5.5872,-5.5944,-5.5997,-5.5989,-5.6037,-5.6083,-5.6058,-5.6097,-5.6091,-5.6092,-5.5882,-5.5854,-5.6116,-5.6116,-5.6116,-5.6116,-5.6116,-5.6115,-5.5728,-5.583,-5.5815,-5.5925,-5.5929,-5.6001,-5.6021,-5.6045,-5.6061,-5.6143,-5.6188,-5.6182,-5.619,-5.6238,-5.6284,-5.628,-5.6299,-5.6347,-5.6333,-5.6136,-5.6107,-5.608,-5.6053,-5.6353,-5.6353,-5.6538,-5.654,-5.6541]},{"header":{"parameterUnit":"m.s-1","parameterCategory":1,"la1":30.2991,"la2":30.254,"lo1":-89.0895,"lo2":-89.0444,"dy":0.0017,"dx":0.0017,"nx":28,"ny":28,"refTime":"2025-09-01T21:00:00:Z","depth":0,"parameterNumber":3,"parameterNumberName":"V-component_of_WINDS"},"data":[0,0,0,0,0,0,0,0,0,0,0,0,0,0,0,0,0,0,0,0,0,0,0,0,0,0,0,0,0,0,0,0,0,0,0,0,0,0,0,0,0,0,0,0,0,0,0,0,0,0,0,0,0,0,0,0,0,0,-0.8059,-0.806,0,-0.8118,-0.8119,-0.812,-0.8159,-0.8159,-0.816,-0.816,-0.8222,-0.8223,-0.8224,0,0,0,0,0,0,0,0,0,0,0,0,0,-0.7981,-0.7982,-0.8059,-0.806,-0.8061,-0.8118,-0.8119,-0.812,-0.8159,-0.8159,-0.816,-0.816,-0.8221,-0.8223,-0.8224,0,0,0,0,0,0,0,0,0,0,0,0,0,-0.8025,-0.7982,-0.8059,-0.8087,-0.809,-0.8118,-0.8119,-0.812,-0.8159,-0.8159,-0.816,-0.816,-0.8221,-0.8223,-0.8225,-0.823,0,0,-0.8231,-0.8232,0,0,0,0,0,0,0,0,-0.8022,-0.8028,-0.8082,-0.8085,-0.8089,-0.8132,-0.8114,-0.8157,-0.8159,-0.8133,-0.816,-0.816,-0.8191,-0.8196,-0.8206,-0.8233,-0.8235,-0.8231,-0.8233,-0.8233,-0.8234,0,0,0,0,0,0,0,-0.8019,-0.8025,-0.8083,-0.8083,-0.8087,-0.8097,-0.8104,-0.8122,-0.8159,-0.8135,-0.8138,-0.8145,-0.8193,-0.8204,-0.8208,-0.8236,-0.8231,-0.8233,-0.8234,-0.8235,-0.8268,-0.8268,0,0,0,0,0,0,-0.8012,-0.8023,-0.8081,-0.8085,-0.8056,-0.8098,-0.8106,-0.8118,-0.8159,-0.8166,-0.8144,-0.8146,-0.82,-0.8205,-0.821,-0.8218,-0.8233,-0.8235,-0.8237,-0.8268,-0.8268,-0.8268,0,0,0,0,0,0,-0.801,-0.8016,-0.8079,-0.8054,-0.8063,-0.8099,-0.8112,-0.8119,-0.8129,-0.8166,-0.8173,-0.8148,-0.8201,-0.8207,-0.8224,-0.8221,-0.8236,-0.8238,-0.8269,-0.8268,-0.8268,-0.8233,0,0,0,0,0,0,-0.8007,-0.8016,-0.8018,-0.8054,-0.8064,-0.8091,-0.8112,-0.8119,-0.8133,-0.8136,-0.8172,-0.8178,-0.8202,-0.8221,-0.8226,-0.8224,-0.824,-0.8269,-0.8269,-0.8268,-0.8235,-0.8232,-0.8229,0,0,0,0,0,-0.8004,-0.8006,-0.8018,-0.8025,-0.8068,-0.8091,-0.8097,-0.8124,-0.8132,-0.8135,-0.8158,-0.8177,-0.822,-0.8222,-0.8229,-0.8227,-0.827,-0.8269,-0.8268,-0.8236,-0.8232,-0.8229,0,0,0,0,0,0,-0.797,-0.8012,-0.8025,-0.8039,-0.8061,-0.8098,-0.8102,-0.8119,-0.8139,-0.8141,-0.8174,-0.8182,-0.8195,-0.8213,-0.8214,-0.8233,-0.8247,-0.8247,-0.8221,-0.8217,-0.8214,-0.821,-0.8242,0,0,0,0,0,-0.7963,-0.7978,-0.8015,-0.8023,-0.8034,-0.8065,-0.8077,-0.8095,-0.812,-0.813,-0.8154,-0.8177,-0.8196,-0.8208,-0.8227,-0.8238,-0.8246,-0.824,-0.8237,-0.8234,-0.8234,-0.8239,-0.8237,-0.8265,-0.8265,-0.8265,0,0,-0.7951,-0.7976,-0.7984,-0.8017,-0.8036,-0.8051,-0.8073,-0.8088,-0.81,-0.8132,-0.8149,-0.8168,-0.8196,-0.8209,-0.8216,-0.8224,-0.8228,-0.8233,-0.823,-0.8232,-0.8238,-0.8236,-0.8233,-0.8264,-0.8264,-0.8264,0,0,-0.7936,-0.7956,-0.7965,-0.7984,-0.8013,-0.8034,-0.8035,-0.807,-0.8083,-0.81,-0.8124,-0.8138,-0.817,-0.8189,-0.8202,-0.8193,-0.821,-0.8198,-0.8182,-0.8187,-0.8185,-0.8183,-0.8179,-0.8177,-0.8198,-0.8198,-0.8198,0,-0.7917,-0.794,-0.7968,-0.7981,-0.7995,-0.8024,-0.8033,-0.805,-0.8083,-0.8092,-0.81,-0.814,-0.8161,-0.8178,-0.8176,-0.8186,-0.8189,-0.8194,-0.8183,-0.8181,-0.818,-0.8176,-0.8175,-0.8196,-0.8196,-0.8196,-0.8197,0,-0.7915,-0.793,-0.7934,-0.7965,-0.7979,-0.799,-0.8019,-0.803,-0.8047,-0.8067,-0.8083,-0.811,-0.8134,-0.814,-0.8157,-0.8159,-0.8163,-0.8177,-0.8191,-0.8175,-0.8172,-0.8171,-0.8193,-0.8194,-0.8195,-0.8195,0,0,-0.788,-0.7925,-0.7926,-0.7939,-0.7973,-0.7985,-0.7997,-0.802,-0.8028,-0.8051,-0.8061,-0.8087,-0.8099,-0.8114,-0.8134,-0.8138,-0.8127,-0.8151,-0.8153,-0.8145,-0.813,-0.8119,-0.8117,-0.8139,-0.8139,-0.8139,-0.8127,0,-0.7869,-0.7892,-0.7916,-0.793,-0.7944,-0.7972,-0.7982,-0.8003,-0.8022,-0.8037,-0.8057,-0.8074,-0.809,-0.8099,-0.8105,-0.8127,-0.8125,-0.8129,-0.8149,-0.8149,-0.814,-0.8115,-0.8104,-0.8092,-0.8126,-0.8126,-0.8126,0,-0.786,-0.7879,-0.7894,-0.7925,-0.7932,-0.794,-0.7963,-0.7977,-0.8001,-0.8014,-0.803,-0.8051,-0.8064,-0.8077,-0.8096,-0.8098,-0.8108,-0.812,-0.812,-0.8123,-0.8136,-0.8117,-0.8089,-0.8087,-0.8125,-0.8125,-0.8125,0,-0.7832,-0.7862,-0.7874,-0.7885,-0.7921,-0.7927,-0.7942,-0.7967,-0.7979,-0.7999,-0.8006,-0.8028,-0.8039,-0.8055,-0.8081,-0.8088,-0.8096,-0.8112,-0.8107,-0.8106,-0.8107,-0.8107,-0.808,-0.8115,-0.8115,-0.8115,-0.8115,0,-0.7817,-0.7825,-0.7862,-0.7869,-0.7879,-0.7907,-0.7915,-0.7933,-0.7955,-0.7966,-0.7991,-0.8001,-0.8035,-0.8049,-0.8069,-0.808,-0.8086,-0.8096,-0.8101,-0.8094,-0.8092,-0.81,-0.8101,-0.8114,-0.8114,-0.8114,-0.8114,0,-0.7787,-0.7812,-0.7827,-0.786,-0.7868,-0.7873,-0.7901,-0.7909,-0.7929,-0.7943,-0.7948,-0.7979,-0.7996,-0.8023,-0.8049,-0.8063,-0.8071,-0.808,-0.8062,-0.8065,-0.8059,-0.8058,-0.8036,-0.8034,-0.807,-0.8069,-0.8069,0,-0.7775,-0.7782,-0.7814,-0.7823,-0.7838,-0.7852,-0.7864,-0.7892,-0.7903,-0.7931,-0.7935,-0.7955,-0.7972,-0.7998,-0.8023,-0.8043,-0.8052,-0.8042,-0.8055,-0.8046,-0.805,-0.8049,-0.805,-0.8039,-0.8039,-0.8038,-0.8038,0,-0.7752,-0.7764,-0.778,-0.7799,-0.7813,-0.783,-0.7848,-0.7854,-0.7886,-0.7898,-0.7915,-0.7928,-0.7954,-0.7973,-0.7995,-0.8011,-0.8029,-0.8034,-0.8033,-0.8025,-0.8015,-0.8019,-0.8053,-0.8034,-0.8034,-0.8035,-0.8035,-0.8035,-0.773,-0.7737,-0.776,-0.7777,-0.7793,-0.781,-0.7818,-0.7839,-0.7854,-0.7876,-0.7892,-0.7908,-0.7932,-0.7964,-0.7979,-0.7992,-0.8,-0.8,-0.8,-0.7999,-0.7996,-0.8013,-0.7996,-0.7997,-0.7997,-0.7997,-0.7997,0,-0.7707,-0.7723,-0.7738,-0.7763,-0.7775,-0.7791,-0.7812,-0.7821,-0.7835,-0.7855,-0.7871,-0.7891,-0.7909,-0.7934,-0.7954,-0.7959,-0.7968,-0.7964,-0.7963,-0.7966,-0.7988,-0.7986,-0.7956,-0.7956,-0.7956,-0.7956,-0.7956,-0.7956,-0.7697,-0.7708,-0.7722,-0.7742,-0.7758,-0.7774,-0.7784,-0.7799,-0.7815,-0.7836,-0.785,-0.7867,-0.7889,-0.791,-0.7927,-0.7934,-0.7939,-0.7932,-0.7941,-0.7961,-0.7965,-0.7968,-0.7966,-0.7933,-0.7933,-0.7918,-0.7918,-0.7918]}]]